OK1JIL-13 Weather Reports


Display with metric or nautical units.
time (UTC)temp
F
wind
direction
speed
MPH
gust
MPH
rain 1hr
in
rain 24hr
in
rain mn
in
humidity
%
barometer
mb
20260507204000 54 0.0 0.0 0.00 0.00 0.00 63 1015.6
20260507203000 55 0.0 0.0 0.00 0.00 0.00 61 1015.6
20260507202000 54 0.0 0.0 0.00 0.00 0.00 61 1015.5
20260507201000 54 0.0 0.0 0.00 0.00 0.00 61 1015.4
20260507200000 53 0.0 0.0 0.00 0.00 0.00 62 1015.4
20260507195000 53 0.0 0.0 0.00 0.00 0.00 62 1015.2
20260507194000 53 0.0 0.0 0.00 0.00 0.00 59 1015.2
20260507193000 54 0.0 0.0 0.00 0.00 0.00 59 1015.1
20260507192000 54 0.0 0.0 0.00 0.00 0.00 60 1014.9
20260507191000 54 0.0 0.0 0.00 0.00 0.00 61 1014.8
20260507190000 54 0.0 0.0 0.00 0.00 0.00 62 1014.7
20260507185000 54 0.0 0.0 0.00 0.00 0.00 59 1014.6
20260507184000 54 0.0 0.0 0.00 0.00 0.00 58 1014.5
20260507183000 55 0.0 0.0 0.00 0.00 0.00 58 1014.5
20260507182000 54 0.0 0.0 0.00 0.00 0.00 60 1014.4
20260507181000 54 0.0 0.0 0.00 0.00 0.00 62 1014.3
20260507180000 55 0.0 0.0 0.00 0.00 0.00 61 1014.3
20260507175000 55 0.0 0.0 0.00 0.00 0.00 62 1014.3
20260507174000 54 0.0 0.0 0.00 0.00 0.00 66 1014.4
20260507173000 55 0.0 0.0 0.00 0.00 0.00 62 1014.3
20260507172000 57 0.0 0.0 0.00 0.00 0.00 58 1014.1
20260507171000 57 0.0 0.0 0.00 0.00 0.00 57 1014.0
20260507170000 57 0.0 0.0 0.00 0.00 0.00 57 1013.9
20260507165000 57 0.0 0.0 0.00 0.00 0.00 54 1013.9
20260507164000 57 0.0 0.0 0.00 0.00 0.00 57 1013.8
20260507163000 57 0.0 0.0 0.00 0.00 0.00 56 1013.7
20260507162000 57 0.0 0.0 0.00 0.00 0.00 56 1013.7
20260507161000 58 0.0 0.0 0.00 0.00 0.00 54 1013.6
20260507160001 58 0.0 0.0 0.00 0.00 0.00 57 1013.6
20260507155001 57 0.0 0.0 0.00 0.00 0.00 56 1013.6
20260507154001 59 0.0 0.0 0.00 0.00 0.00 57 1013.6
20260507153001 60 0.0 0.0 0.00 0.00 0.00 57 1013.7
20260507152001 57 0.0 0.0 0.00 0.00 0.00 59 1013.6
20260507151001 59 0.0 0.0 0.00 0.00 0.00 57 1013.7
20260507150001 59 0.0 0.0 0.00 0.00 0.00 58 1013.6
20260507145001 59 0.0 0.0 0.00 0.00 0.00 60 1013.5
20260507144001 59 0.0 0.0 0.00 0.00 0.00 58 1013.5
20260507143001 56 0.0 0.0 0.00 0.00 0.00 61 1013.6
20260507142001 56 0.0 0.0 0.00 0.00 0.00 60 1013.7
20260507141002 58 0.0 0.0 0.00 0.00 0.00 60 1013.6
20260507140001 56 0.0 0.0 0.00 0.00 0.00 62 1013.5
20260507135001 58 0.0 0.0 0.00 0.00 0.00 62 1013.6
20260507134000 57 0.0 0.0 0.00 0.00 0.00 62 1013.5
20260507133001 58 0.0 0.0 0.00 0.00 0.00 62 1013.5
20260507132001 58 0.0 0.0 0.00 0.00 0.00 62 1013.5
20260507131001 60 0.0 0.0 0.00 0.00 0.00 61 1013.5
20260507130001 60 0.0 0.0 0.00 0.00 0.00 63 1013.4
20260507125001 58 0.0 0.0 0.00 0.00 0.00 63 1013.3
20260507124000 58 0.0 0.0 0.00 0.00 0.00 62 1013.2
20260507123001 59 0.0 0.0 0.00 0.00 0.00 61 1013.2
20260507122001 59 0.0 0.0 0.00 0.00 0.00 63 1013.1
20260507121003 57 0.0 0.0 0.00 0.00 0.00 66 1013.0
20260507115959 60 0.0 0.0 0.00 0.00 0.00 61 1012.9
20260507114959 59 0.0 0.0 0.00 0.00 0.00 63 1013.0
20260507113959 59 0.0 0.0 0.00 0.00 0.00 63 1012.9
20260507112959 60 0.0 0.0 0.00 0.00 0.00 62 1012.8
20260507112002 60 0.0 0.0 0.00 0.00 0.00 65 1012.7
20260507110959 59 0.0 0.0 0.00 0.00 0.00 67 1012.7
20260507105959 59 0.0 0.0 0.00 0.00 0.00 64 1012.6
20260507104959 57 0.0 0.0 0.00 0.00 0.00 67 1012.5
20260507103959 56 0.0 0.0 0.00 0.00 0.00 67 1012.5
20260507102959 56 0.0 0.0 0.00 0.00 0.00 66 1012.4
20260507101959 56 0.0 0.0 0.00 0.00 0.00 68 1012.5
20260507100959 55 0.0 0.0 0.00 0.00 0.00 68 1012.4
20260507095959 56 0.0 0.0 0.00 0.00 0.00 67 1012.3
20260507094959 56 0.0 0.0 0.00 0.00 0.00 66 1012.3
20260507093959 55 0.0 0.0 0.00 0.00 0.00 67 1012.2
20260507092959 54 0.0 0.0 0.00 0.00 0.00 70 1012.1
20260507091959 55 0.0 0.0 0.00 0.00 0.00 68 1012.0
20260507090959 55 0.0 0.0 0.00 0.00 0.00 69 1011.8
20260507085959 55 0.0 0.0 0.00 0.00 0.00 69 1011.7
20260507084959 55 0.0 0.0 0.00 0.00 0.00 70 1011.7
20260507083959 55 0.0 0.0 0.00 0.00 0.00 69 1011.5
20260507082959 56 0.0 0.0 0.00 0.00 0.00 67 1011.3
20260507081959 56 0.0 0.0 0.00 0.00 0.00 67 1011.3
20260507080959 57 0.0 0.0 0.00 0.00 0.00 65 1011.2
20260507075959 56 0.0 0.0 0.00 0.00 0.00 67 1011.1
20260507074959 55 0.0 0.0 0.00 0.00 0.00 68 1011.0
20260507073959 56 0.0 0.0 0.00 0.00 0.00 67 1010.9
20260507072959 56 0.0 0.0 0.00 0.00 0.00 66 1010.8
20260507071959 58 0.0 0.0 0.00 0.00 0.00 64 1010.7
20260507070959 57 0.0 0.0 0.00 0.00 0.00 65 1010.7
20260507065959 56 0.0 0.0 0.00 0.00 0.00 68 1010.6
20260507064959 56 0.0 0.0 0.00 0.00 0.00 67 1010.6
20260507063959 56 0.0 0.0 0.00 0.00 0.00 67 1010.5
20260507062959 57 0.0 0.0 0.00 0.00 0.00 66 1010.3
20260507061959 56 0.0 0.0 0.00 0.00 0.00 68 1010.2
20260507060959 54 0.0 0.0 0.00 0.00 0.00 71 1010.0
20260507055959 55 0.0 0.0 0.00 0.00 0.00 70 1009.8
20260507054959 55 0.0 0.0 0.00 0.00 0.00 67 1009.8
20260507053959 56 0.0 0.0 0.00 0.00 0.00 67 1009.8
20260507052959 54 0.0 0.0 0.00 0.00 0.00 71 1009.7
20260507051959 54 0.0 0.0 0.00 0.00 0.00 72 1009.7
20260507050959 55 0.0 0.0 0.00 0.00 0.00 72 1009.4
20260507045959 56 0.0 0.0 0.00 0.00 0.00 67 1009.3
20260507044959 57 0.0 0.0 0.00 0.00 0.00 65 1009.3
20260507043959 58 0.0 0.0 0.00 0.00 0.00 65 1009.2
20260507042959 57 0.0 0.0 0.00 0.00 0.00 65 1009.0
20260507041959 57 0.0 0.0 0.00 0.00 0.00 65 1008.9
20260507041001 57 0.0 0.0 0.00 0.00 0.00 65 1008.8
20260507040000 57 0.0 0.0 0.00 0.00 0.00 65 1008.8
20260507034959 56 0.0 0.0 0.00 0.00 0.00 66 1008.8
20260507033959 57 0.0 0.0 0.00 0.00 0.00 65 1008.7
20260507033000 57 0.0 0.0 0.00 0.00 0.00 65 1008.7
20260507031959 57 0.0 0.0 0.00 0.00 0.00 65 1008.7
20260507030959 56 0.0 0.0 0.00 0.00 0.00 68 1008.7
20260507025959 55 0.0 0.0 0.00 0.00 0.00 70 1008.8
20260507024959 55 0.0 0.0 0.00 0.00 0.00 68 1008.7
20260507023959 56 0.0 0.0 0.00 0.00 0.00 67 1008.6
20260507022959 56 0.0 0.0 0.00 0.00 0.00 68 1008.7
20260507021959 56 0.0 0.0 0.00 0.00 0.00 67 1008.6
20260507020959 55 0.0 0.0 0.00 0.00 0.00 70 1008.6
20260507015959 54 0.0 0.0 0.00 0.00 0.00 70 1008.6
20260507014959 57 0.0 0.0 0.00 0.00 0.00 65 1008.6
20260507013959 57 0.0 0.0 0.00 0.00 0.00 65 1008.5
20260507012959 57 0.0 0.0 0.00 0.00 0.00 65 1008.5
20260507011959 57 0.0 0.0 0.00 0.00 0.00 65 1008.4
20260507010959 56 0.0 0.0 0.00 0.00 0.00 66 1008.5
20260507005959 54 0.0 0.0 0.00 0.00 0.00 70 1008.4
20260507004959 55 0.0 0.0 0.00 0.00 0.00 68 1008.1
20260507003959 53 0.0 0.0 0.00 0.00 0.00 70 1007.8
20260507002959 54 0.0 0.0 0.00 0.00 0.00 67 1007.4
20260507001959 54 0.0 0.0 0.00 0.00 0.00 66 1007.3
20260507001001 55 0.0 0.0 0.00 0.00 0.00 63 1007.3
20260506235957 56 0.0 0.0 0.00 0.00 0.00 63 1007.4
20260506234957 57 0.0 0.0 0.00 0.00 0.00 65 1007.5
20260506233957 55 0.0 0.0 0.00 0.00 0.00 68 1007.6
20260506232957 56 0.0 0.0 0.00 0.00 0.00 66 1008.0
20260506231958 57 0.0 0.0 0.00 0.00 0.00 64 1008.6
20260506230957 57 0.0 0.0 0.00 0.00 0.00 64 1008.9
20260506225957 57 0.0 0.0 0.00 0.00 0.00 64 1008.8
20260506224957 56 0.0 0.0 0.00 0.00 0.00 66 1008.8
20260506223957 57 0.0 0.0 0.00 0.00 0.00 65 1008.7
20260506222957 56 0.0 0.0 0.00 0.00 0.00 65 1008.1
20260506221957 56 0.0 0.0 0.00 0.00 0.00 65 1007.9
20260506220957 56 0.0 0.0 0.00 0.00 0.00 64 1007.9
20260506215957 58 0.0 0.0 0.00 0.00 0.00 63 1007.9
20260506214957 57 0.0 0.0 0.00 0.00 0.00 64 1008.1
20260506213957 55 0.0 0.0 0.00 0.00 0.00 69 1007.7
20260506213001 55 0.0 0.0 0.00 0.00 0.00 68 1007.5
20260506211957 56 0.0 0.0 0.00 0.00 0.00 67 1007.6
20260506210957 55 0.0 0.0 0.00 0.00 0.00 67 1007.6
20260506205957 55 0.0 0.0 0.00 0.00 0.00 66 1007.5
20260506204957 56 0.0 0.0 0.00 0.00 0.00 64 1007.5